Dewpoint
67 66 66 67 67 68 68 68 69 69 69 69 69 69 69 69 68 68 68 68 68 68 68 68 68 68 69 69 69 69 69 69 68 68 68 68 68 68 67 67 66 66 66 66 66 66 68 63 59 56 56 57 57 58 60 60 61 61 61 62 62 63 64 66 68 68 69 70 71 71 71 71 71 70 70 70 70 70 69 69 69 69 69 69 68 68 68 68 68 68 68 68 69 69 69 69 68 68 68 68 67 67 67
67 66 66 67 67 68 68 68 68 68 69 69 69 69 69 68 68 68 68 68 68 68 68 68 68 68 69 69 69 69 69 69 69 68 68 68 68 68 68 67 66 66 66 66 66 67 67 62 58 55 55 56 57 58 59 60 60 60 61 61 61 62 63 66 67 68 68 69 70 70 71 70 70 70 70 70 70 69 69 69 68 68 68 68 67 67 67 67 67 67 68 68 68 68 68 68 68 68 68 67 67 67 67
67 66 66 67 67 67 68 68 68 68 68 68 68 68 68 68 68 68 68 68 68 68 68 68 68 68 69 69 69 69 69 69 69 69 69 69 68 68 68 67 67 66 66 66 66 67 67 64 59 55 55 55 56 57 58 59 60 60 61 61 61 62 64 65 67 67 68 69 69 69 70 69 69 69 69 69 69 69 68 68 67 67 67 67 66 66 66 66 66 66 66 66 67 67 67 67 67 67 67 67 67 67 67
67 66 66 67 67 67 67 68 68 68 68 68 68 68 68 68 68 68 68 68 68 68 68 68 68 68 69 69 69 69 69 69 69 69 69 69 68 68 67 67 67 66 66 66 67 66 62 61 58 55 55 55 56 57 58 58 59 60 61 62 62 63 64 65 66 66 67 68 68 69 69 68 68 68 68 67 67 67 66 66 66 66 65 65 65 65 64 64 64 64 65 65 65 65 66 66 66 67 67 67 67 67 66
67 66 66 66 67 67 67 67 68 68 68 68 68 68 68 68 68 68 68 68 68 68 68 67 68 68 68 69 69 69 69 69 69 69 69 68 68 68 67 67 67 66 66 66 67 65 61 60 57 55 55 55 56 56 56 58 59 60 61 62 63 64 65 65 65 65 66 67 67 68 68 67 67 67 66 66 66 66 65 65 65 64 64 64 64 64 63 63 63 63 63 63 64 64 64 64 65 65 66 66 66 66 66
67 67 66 66 67 67 67 67 67 68 68 68 68 68 68 68 68 68 68 68 68 68 67 67 67 67 68 69 69 69 69 69 69 69 69 68 68 68 67 67 67 66 66 66 66 65 62 56 54 54 55 55 56 56 56 57 58 59 61 62 63 64 65 65 65 65 65 66 67 67 67 67 67 66 66 65 65 65 64 64 64 64 64 63 63 63 62 62 62 62 62 62 62 62 63 63 64 64 64 65 65 65 66
67 67 67 67 67 67 67 67 67 67 68 68 68 68 68 68 68 68 68 68 68 68 67 67 67 67 67 68 69 69 69 69 69 69 68 68 68 68 67 67 67 66 66 66 66 65 63 56 54 54 55 55 56 56 56 57 57 59 60 61 64 65 65 65 65 65 64 65 66 66 66 66 66 66 65 65 65 64 64 64 64 64 63 63 63 62 62 62 61 61 61 61 61 61 61 61 62 62 63 64 64 64 65
68 67 67 67 67 67 67 67 67 67 67 68 68 68 68 68 68 68 68 68 68 68 67 67 67 67 67 68 68 69 69 69 69 69 68 68 68 67 67 67 67 66 66 65 65 65 64 58 55 54 54 55 55 55 56 56 56 57 59 61 63 65 65 65 65 64 64 65 65 66 66 66 66 65 65 65 64 64 64 64 64 63 63 63 62 62 62 61 61 61 60 60 60 60 60 60 60 61 61 62 63 63 64
68 67 67 67 67 67 67 67 67 67 67 67 68 68 68 68 68 68 68 68 68 68 67 67 66 66 66 67 67 68 69 69 69 69 68 68 67 67 67 67 66 66 65 65 64 64 64 60 56 54 54 53 54 55 56 55 55 56 58 61 63 64 65 65 65 64 64 64 64 65 65 65 65 65 65 64 64 64 64 64 63 63 63 62 62 62 61 61 61 60 60 60 60 60 60 60 59 60 60 60 61 62 63
68 67 67 67 67 67 67 67 67 67 67 67 67 68 68 68 68 68 68 68 68 68 68 67 66 66 66 66 66 67 68 68 68 68 68 67 67 67 67 67 66 65 65 64 64 64 65 60 56 54 54 54 54 55 57 56 56 57 58 62 64 65 65 65 65 64 64 64 64 64 65 65 65 64 64 64 64 64 63 63 63 62 62 62 61 61 61 60 60 60 60 60 60 59 59 59 59 59 59 59 60 61 62
68 68 68 67 67 67 67 67 67 67 67 67 67 67 68 68 68 68 68 68 68 68 68 67 66 66 65 65 65 66 66 67 67 67 67 67 67 67 66 66 66 65 65 64 64 64 66 61 56 54 54 53 54 55 55 56 57 57 58 63 65 65 65 65 64 64 64 64 64 64 64 64 64 64 64 64 64 63 63 63 62 62 62 61 61 60 60 60 60 60 60 59 59 59 59 59 59 58 58 59 59 60 61
68 68 68 67 67 67 67 67 66 66 67 67 67 67 67 68 68 68 67 67 68 68 68 67 67 66 65 65 64 64 64 65 66 66 66 66 66 66 66 65 65 64 64 64 64 64 64 59 55 53 53 53 54 54 55 56 56 57 58 63 65 65 65 65 64 64 64 64 64 64 64 64 64 64 64 63 63 63 62 62 62 62 61 61 60 60 59 59 59 59 59 59 59 59 59 59 59 58 58 58 59 59 60
68 68 67 67 67 67 67 67 66 66 66 66 67 67 67 67 67 68 67 67 67 68 67 67 67 66 65 64 64 63 63 63 64 64 65 65 65 65 65 65 64 64 64 64 63 62 59 55 53 52 51 52 53 53 55 55 56 57 60 64 65 65 65 65 64 64 64 64 64 64 64 64 64 64 64 63 63 63 62 62 62 61 61 60 60 59 59 59 59 59 59 59 59 59 59 59 59 59 58 58 58 59 59
68 67 66 67 68 68 67 67 67 66 66 66 66 67 67 67 67 67 68 67 67 67 67 67 66 66 65 64 63 62 61 61 61 62 63 64 64 64 64 64 64 64 64 64 61 59 55 54 52 52 51 52 52 53 56 55 56 59 62 64 64 64 64 65 64 64 64 64 64 64 64 64 64 64 64 63 63 62 62 62 61 61 60 60 59 59 59 58 58 58 58 59 59 59 59 59 59 59 58 58 58 58 59
66 66 66 67 68 68 68 67 67 67 66 66 66 66 66 67 67 67 68 67 67 67 67 67 66 66 65 64 63 62 61 60 60 60 60 61 62 63 63 63 63 64 64 61 58 55 54 53 52 52 52 51 51 52 55 54 56 60 64 64 64 64 64 65 65 64 64 64 64 64 64 64 64 64 64 63 63 62 62 61 61 60 60 59 59 58 58 58 58 58 58 58 58 59 59 59 59 58 58 58 58 58 58
64 65 66 67 68 68 69 68 67 67 67 67 66 66 66 67 67 67 67 67 67 67 67 66 66 66 65 64 63 62 60 60 59 58 58 59 59 60 60 60 61 62 62 59 55 53 53 52 52 52 52 51 51 52 53 54 57 61 64 64 63 63 64 64 65 64 64 64 64 64 64 64 64 64 63 63 63 62 62 61 61 60 60 59 59 58 58 58 58 58 58 58 58 58 58 58 58 58 58 58 58 58 58
64 64 66 68 68 69 69 68 68 67 67 67 67 67 67 67 67 67 67 67 67 67 67 66 66 65 64 64 64 62 59 58 57 56 56 56 56 57 57 58 59 59 57 55 54 52 52 51 51 51 51 51 51 52 53 54 58 62 63 63 63 62 63 64 64 65 64 64 64 64 64 64 64 64 63 63 62 62 62 61 60 60 59 59 58 58 58 57 57 57 58 58 58 58 58 58 58 58 58 58 58 58 58
64 66 68 68 69 69 69 69 68 68 67 67 67 67 67 67 67 67 67 67 67 67 67 66 66 65 64 65 64 62 59 57 55 55 55 55 55 55 56 58 57 55 53 53 52 52 51 51 50 50 50 50 50 51 53 55 59 62 62 63 62 62 62 63 64 64 64 64 64 64 64 64 64 64 63 63 62 62 61 61 60 60 59 58 58 58 57 57 57 57 57 58 58 58 58 58 58 58 58 58 58 58 58
65 67 68 68 69 69 69 69 68 68 68 67 67 67 67 67 67 67 67 67 67 67 67 66 65 64 64 64 63 60 59 57 55 54 53 52 53 54 55 54 51 49 48 50 51 51 51 50 50 50 49 49 50 51 54 56 60 62 62 62 62 62 61 62 63 64 64 64 64 64 64 63 64 64 63 63 63 62 61 60 60 59 59 58 58 58 57 57 57 57 57 57 58 58 58 58 58 58 58 58 58 58 57
66 67 68 68 68 68 69 68 68 68 68 67 67 67 67 67 67 67 67 67 67 67 66 66 65 64 63 61 60 58 58 57 56 55 54 53 52 51 50 47 45 44 45 46 48 49 49 49 49 49 49 48 49 51 53 57 60 62 62 62 62 62 61 61 62 63 64 64 64 64 64 63 64 64 63 63 63 62 61 60 60 59 58 58 58 57 57 57 57 57 57 57 57 58 58 58 57 57 57 57 57 57 57
65 65 65 66 67 67 67 67 67 67 67 67 66 65 64 65 65 66 66 66 66 66 66 65 64 62 61 59 58 58 58 58 57 56 56 55 53 51 50 47 46 44 44 45 46 47 48 49 49 49 48 48 48 49 51 58 60 62 62 62 62 62 61 61 61 62 63 64 64 64 64 64 63 63 63 63 63 62 61 60 60 59 58 58 58 57 57 57 56 56 57 57 57 57 57 57 57 57 57 57 57 57 57
64 64 64 64 64 64 63 64 64 64 65 67 66 63 61 61 63 64 64 63 63 64 64 63 61 60 60 59 58 57 58 58 57 57 57 56 55 53 52 50 48 46 44 44 45 46 48 49 50 50 49 48 48 49 51 58 61 61 62 62 62 62 61 61 60 61 62 63 64 64 64 64 63 63 63 63 63 62 61 60 59 59 58 58 57 57 57 56 56 56 56 57 57 57 57 57 57 57 57 57 57 57 57
63 63 63 62 62 62 62 62 62 62 64 66 64 62 60 60 60 61 61 60 60 61 61 60 60 60 60 60 59 58 58 58 58 57 57 56 56 55 53 51 50 48 46 45 45 45 46 48 49 50 50 49 49 49 51 58 60 61 61 62 62 62 61 61 60 60 61 62 64 64 64 63 63 63 63 63 63 62 61 60 59 59 58 58 57 57 56 56 56 56 56 56 57 57 57 57 57 57 57 57 57 57 56
62 62 62 62 62 62 62 62 62 62 63 64 63 61 60 60 60 60 60 60 60 60 60 60 60 60 60 60 60 59 58 58 58 57 57 56 56 55 54 52 51 50 48 47 46 46 46 47 48 49 49 49 49 50 51 57 60 60 61 61 61 61 61 61 60 60 60 61 62 64 64 63 63 63 63 63 63 62 61 60 59 58 58 57 57 56 56 56 55 56 56 56 56 57 57 57 57 57 57 57 57 56 56
62 62 62 62 62 62 62 62 62 62 63 63 62 61 60 60 60 60 60 60 60 59 60 60 60 60 60 60 60 59 59 57 57 56 56 56 56 55 54 53 51 50 49 48 48 47 46 46 46 47 48 48 49 50 52 57 59 60 60 61 61 61 61 61 60 60 60 60 61 62 64 64 63 63 63 63 63 62 61 60 60 59 58 57 57 56 56 55 55 55 55 56 56 56 56 56 57 57 57 57 56 56 56
62 62 62 61 61 61 62 62 62 62 62 63 63 62 61 60 60 60 60 60 60 59 60 60 60 60 60 60 59 59 59 58 57 56 55 55 55 55 54 53 52 51 49 49 48 48 47 47 46 46 46 46 47 49 51 58 60 60 60 60 61 61 61 61 61 60 60 60 60 61 62 64 64 64 64 63 63 63 62 61 60 59 58 57 57 56 55 55 55 55 55 55 56 56 56 56 56 56 57 57 56 56 56
62 62 62 61 61 61 61 61 61 62 62 63 63 62 62 61 61 61 60 60 60 60 59 59 60 60 60 60 59 59 59 58 57 56 56 55 55 55 54 53 52 51 50 49 48 48 47 47 46 46 46 46 46 47 49 57 61 62 60 60 60 60 61 61 60 60 60 60 60 60 61 62 64 64 64 64 63 63 62 61 60 60 59 58 57 56 55 55 55 55 55 55 56 56 56 56 56 56 56 56 56 56 56
63 62 62 62 61 61 60 60 60 61 61 62 62 62 61 61 61 61 61 60 60 60 59 59 59 59 60 60 60 59 59 59 58 57 56 55 55 54 53 53 52 51 50 49 48 47 46 46 46 45 45 46 46 47 48 55 60 61 59 59 60 60 60 60 60 60 60 60 60 60 60 61 63 64 64 64 64 63 62 62 61 60 60 59 58 57 56 55 55 55 55 55 56 56 56 56 56 56 56 56 56 56 56
63 63 63 62 61 61 60 60 60 60 60 61 61 61 60 60 60 60 60 60 60 60 60 58 59 60 60 60 60 60 59 59 58 58 57 56 55 54 53 52 51 51 50 49 48 47 46 46 45 45 45 45 46 47 48 51 56 60 60 59 59 60 60 60 60 60 60 60 60 60 60 60 61 62 64 64 63 63 63 62 61 61 60 60 59 58 57 56 55 55 55 55 56 56 56 56 56 56 56 56 56 56 56
62 63 63 61 61 60 60 60 60 61 61 61 61 60 60 60 60 59 60 59 59 59 60 59 60 60 60 60 59 59 60 60 59 58 57 56 55 54 53 52 51 51 50 49 48 47 46 46 46 46 45 45 45 46 47 49 53 57 60 59 59 59 60 60 60 60 60 60 60 60 60 60 60 61 63 63 63 63 63 62 62 61 61 60 59 59 58 57 56 56 56 56 56 56 56 56 56 56 56 56 56 56 55
62 62 62 61 60 60 60 61 61 61 61 61 61 61 60 60 60 60 60 59 58 58 57 58 59 59 59 60 59 59 60 60 59 58 57 57 55 54 53 52 51 50 49 49 48 48 48 47 47 46 46 45 45 45 46 48 51 55 60 59 58 58 59 60 60 60 60 60 60 60 60 60 60 61 62 63 64 64 63 63 62 61 61 60 60 59 58 57 57 56 56 56 56 57 57 56 56 56 56 56 55 55 55
61 61 61 60 60 60 61 61 61 61 61 61 61 61 61 61 61 61 60 60 59 58 58 58 59 59 59 59 60 60 60 60 59 59 58 57 56 55 54 52 51 50 50 49 49 49 49 48 48 47 46 44 44 44 46 47 48 51 56 58 59 58 58 59 60 60 60 60 60 60 59 60 60 60 61 62 63 64 64 64 63 62 61 60 60 60 59 58 57 57 56 57 57 57 57 57 57 56 56 56 55 55 55
60 60 60 60 60 60 61 61 61 61 61 61 61 61 61 61 61 61 61 61 60 60 59 59 59 59 60 60 60 60 59 59 59 59 58 57 56 55 54 52 51 51 50 50 49 49 49 49 48 47 46 44 43 42 43 45 46 48 51 55 58 58 58 58 59 59 60 60 60 60 59 60 60 60 60 61 62 64 64 64 64 63 62 60 60 60 60 59 58 57 57 57 57 57 57 57 57 57 56 56 56 55 55
60 60 60 60 60 60 60 60 60 61 61 61 61 61 61 61 61 61 61 61 61 61 61 60 60 60 60 60 60 60 59 58 58 58 58 57 56 55 54 53 51 51 50 50 50 50 49 49 48 47 46 44 42 42 42 44 46 47 49 51 54 57 59 58 58 59 60 60 60 60 60 60 60 60 60 61 61 62 63 64 64 63 62 61 60 60 60 59 59 58 57 57 57 57 57 57 57 57 57 56 56 55 55
60 60 60 60 60 60 60 60 60 61 61 61 61 61 61 61 61 61 61 61 61 61 61 61 60 60 60 60 59 59 59 58 57 57 57 57 57 56 55 54 53 51 51 50 49 49 48 48 47 46 45 44 43 42 42 43 46 47 49 51 52 54 58 58 58 59 59 60 60 60 60 60 60 60 60 60 61 62 62 63 63 63 62 61 60 60 60 60 59 58 58 57 57 57 58 58 58 58 57 57 56 56 55
60 60 60 60 60 60 60 60 60 61 61 61 61 61 61 61 62 62 61 61 61 61 61 61 60 60 60 60 59 59 59 58 57 57 57 57 57 57 56 55 54 53 52 51 50 49 48 48 47 47 46 46 44 43 42 44 45 46 47 48 50 51 53 55 57 58 59 60 60 60 60 60 60 60 60 61 61 61 61 62 62 62 62 61 61 60 60 60 59 59 58 58 58 58 58 58 58 58 58 57 57 56 56
60 60 60 60 60 60 60 60 60 60 60 61 61 61 61 61 61 61 61 61 61 60 60 60 60 60 60 59 59 59 59 58 58 57 57 58 58 57 57 56 55 54 53 52 51 51 50 51 50 49 49 48 47 46 44 45 45 45 45 46 47 48 49 50 52 55 57 59 60 59 59 60 60 60 60 61 61 61 61 61 61 61 61 61 61 61 60 60 60 59 59 58 58 58 58 58 58 58 58 58 57 57 57
60 60 60 60 60 60 60 60 60 61 61 61 61 61 61 61 61 61 61 60 60 60 60 60 60 60 60 59 59 59 59 58 58 58 57 58 58 58 57 57 55 55 54 53 52 52 52 52 52 51 50 50 49 48 46 46 44 43 44 45 45 46 46 47 47 49 53 56 58 59 59 59 59 60 60 60 61 61 61 61 61 61 61 61 61 61 61 60 60 60 59 59 58 58 58 58 58 58 58 58 58 58 57
60 60 60 60 60 60 60 61 61 61 61 61 61 61 60 60 60 60 60 60 60 60 60 60 60 60 60 59 59 59 59 58 58 58 57 57 57 57 57 57 56 55 55 54 53 52 53 53 53 52 51 50 49 48 47 46 45 44 43 43 44 44 45 46 46 48 50 52 55 57 58 58 59 59 60 60 60 61 61 61 61 61 61 61 61 61 61 61 60 60 59 59 58 58 58 58 58 58 58 59 59 58 58
60 60 60 60 60 61 61 61 61 61 61 61 61 60 60 60 60 60 60 60 60 60 60 60 59 59 59 59 59 58 59 58 58 58 57 57 57 57 57 56 55 55 54 54 53 53 53 53 52 51 51 50 48 47 46 46 46 45 43 43 43 43 43 44 45 46 47 48 51 54 57 58 58 58 59 59 60 60 60 61 61 62 62 62 62 61 61 61 60 60 59 59 58 58 58 58 58 58 58 58 59 59 59
60 60 60 60 61 61 61 61 61 61 61 60 60 60 60 60 60 60 60 60 60 60 60 60 59 59 58 59 59 58 58 58 58 57 57 57 57 57 56 56 55 55 54 54 53 53 53 52 52 51 50 48 47 46 46 46 46 45 44 43 43 43 44 45 45 45 45 46 48 51 53 57 58 57 57 58 59 59 60 60 61 61 61 62 62 61 61 60 60 60 59 59 58 58 58 58 58 58 58 58 59 59 60
61 61 61 61 61 61 61 61 61 61 61 60 60 60 60 60 60 60 60 60 60 60 60 60 59 59 58 58 58 58 58 58 58 57 57 57 56 56 56 55 55 54 54 53 53 53 52 52 51 51 49 47 46 46 46 46 46 46 45 44 44 44 45 45 45 45 45 45 46 48 51 56 58 57 57 57 57 58 59 60 60 60 61 61 61 61 61 60 60 60 59 59 58 58 58 58 57 57 57 58 58 59 60
61 61 61 61 61 61 61 61 61 61 61 60 60 60 60 60 60 60 60 59 59 59 59 59 59 59 59 58 58 58 58 58 58 57 57 56 56 56 55 55 54 54 53 53 52 52 52 51 51 50 49 47 46 46 46 46 46 45 45 44 44 45 45 45 45 45 45 46 46 46 48 52 56 58 57 56 57 57 58 58 59 59 60 60 60 60 60 60 60 60 59 59 59 58 58 58 58 57 57 57 58 59 60
61 61 61 61 61 61 61 61 61 61 61 60 60 60 60 60 60 59 59 59 59 59 59 59 59 59 58 58 58 58 58 57 57 57 57 56 56 55 55 55 54 54 53 52 52 52 51 51 51 50 49 47 47 47 47 46 46 45 45 44 44 45 45 45 45 46 46 46 46 46 46 48 51 55 57 57 57 57 57 58 58 58 58 59 59 60 60 60 60 60 60 59 59 58 58 58 58 57 57 57 57 58 59
61 61 61 61 61 61 61 62 61 61 61 61 60 60 60 60 59 59 59 59 59 59 58 58 58 58 58 58 58 58 57 57 57 57 57 56 56 55 55 54 54 53 52 52 51 51 51 51 50 49 48 47 47 47 47 46 46 45 44 44 44 44 44 45 45 46 46 46 46 46 47 47 47 48 51 53 54 55 56 57 57 57 57 57 58 59 59 60 60 60 60 60 59 59 59 58 58 57 57 57 57 57 58
61 61 61 61 61 61 61 62 62 62 61 61 60 60 60 59 59 59 59 59 59 58 58 58 58 58 58 58 58 57 57 57 57 57 57 56 55 55 55 54 54 53 52 52 52 51 51 51 50 49 48 47 47 47 46 46 46 45 43 43 42 43 43 44 45 45 44 44 45 45 47 47 46 44 44 46 46 48 51 55 57 56 56 56 57 57 58 58 59 60 60 60 60 59 59 58 58 57 57 56 56 57 57
61 61 61 61 61 61 61 61 62 62 61 61 60 60 59 59 59 59 59 58 58 58 58 58 58 58 58 58 58 57 57 57 57 57 56 55 55 55 55 55 54 53 52 52 52 52 51 51 49 48 48 47 46 45 45 45 45 44 43 42 42 42 42 43 43 43 43 43 44 45 45 44 43 42 42 42 42 43 45 51 55 57 56 55 55 56 56 57 58 58 59 59 60 60 60 59 58 57 57 56 56 56 56
61 61 61 61 61 61 61 61 61 62 61 61 60 60 59 59 59 59 59 59 59 58 58 58 58 58 58 58 57 57 57 57 57 56 56 55 55 55 55 55 55 54 53 53 53 53 53 51 50 49 47 46 45 45 44 44 44 43 43 43 42 42 42 42 42 42 42 42 43 44 43 42 41 41 40 41 41 41 42 45 50 55 58 57 56 55 55 56 56 57 58 58 59 59 59 59 59 58 57 56 56 56 56
61 61 61 61 61 61 61 61 61 61 61 61 60 60 60 60 59 59 59 59 59 59 59 59 58 58 57 57 57 57 57 57 57 56 56 55 55 55 55 55 55 55 55 55 54 54 54 52 51 50 49 47 46 45 44 44 44 43 43 43 42 42 42 42 42 41 41 42 42 42 42 41 40 39 39 40 40 40 41 42 43 46 51 55 56 57 56 55 55 55 56 57 57 58 59 59 59 58 58 57 56 56 55
61 61 61 61 61 61 61 61 61 61 61 61 60 60 60 60 60 60 59 59 59 59 59 59 58 58 58 57 57 57 57 57 56 56 56 55 55 55 54 55 55 55 56 55 55 54 53 52 51 50 49 48 47 46 45 44 44 44 44 43 42 42 42 41 40 40 40 40 41 42 42 41 40 39 39 40 40 40 40 41 42 43 45 49 53 55 53 54 55 55 55 55 55 56 57 58 58 59 59 58 57 56 55
62 61 61 61 61 61 61 61 61 61 61 61 60 60 60 60 60 60 59 59 59 59 59 59 58 58 58 57 57 57 57 56 56 56 55 55 55 55 55 55 55 55 54 54 54 54 53 52 51 51 50 49 47 46 46 45 44 44 44 43 43 42 41 40 39 38 39 40 40 41 42 41 41 40 39 39 40 40 40 41 42 42 43 44 45 46 47 48 51 53 53 54 54 55 55 56 57 58 58 58 58 57 55
62 62 62 61 61 61 61 61 61 61 61 61 60 60 60 60 60 60 59 59 59 59 59 59 58 58 58 58 58 58 57 56 56 56 55 55 55 56 57 56 55 53 51 51 52 54 54 53 52 51 51 49 48 47 46 45 45 44 44 43 42 41 40 39 39 39 38 39 40 41 41 41 41 41 40 40 40 40 41 41 42 42 43 43 44 44 45 46 49 51 51 52 52 53 53 55 55 56 57 58 58 57 56
62 62 62 62 62 62 62 62 62 61 61 61 60 60 60 60 60 60 60 59 59 59 59 59 59 58 58 58 58 58 57 57 56 56 56 56 55 56 56 55 53 51 51 51 51 51 52 52 52 52 51 50 49 47 46 45 45 44 44 43 42 41 39 39 39 39 39 40 41 41 41 41 41 42 41 41 41 41 42 42 42 42 42 42 43 44 44 46 49 51 51 51 51 51 51 52 54 55 56 57 57 57 56
62 62 62 62 62 62 62 62 62 61 61 61 61 61 60 60 60 60 60 60 60 60 59 59 59 59 58 58 58 58 57 57 56 56 56 57 56 55 55 54 53 53 54 52 51 49 48 50 51 51 50 50 49 47 46 45 44 43 43 42 41 40 39 40 40 41 42 43 43 42 40 40 41 41 41 41 41 41 41 42 42 42 42 42 42 42 43 44 47 50 50 51 51 50 50 51 52 53 55 55 56 56 56
62 62 62 62 62 62 62 62 62 62 62 62 62 61 61 60 60 60 60 60 60 60 60 60 60 59 59 59 58 58 57 56 56 56 56 57 57 56 55 54 54 54 54 53 51 50 48 49 50 51 51 50 49 48 47 46 45 43 43 42 42 41 42 42 43 44 45 45 43 42 41 41 41 42 42 42 42 42 42 42 42 42 42 42 42 42 42 44 46 47 46 47 49 51 50 51 52 53 54 54 55 55 55
62 62 62 62 62 62 62 62 62 62 62 62 62 62 61 61 61 61 60 60 61 61 60 60 60 60 60 60 59 59 59 57 56 56 56 56 57 58 58 57 55 54 54 52 51 50 50 51 51 51 52 51 51 50 49 47 46 45 44 43 43 43 44 45 46 46 46 46 45 43 42 42 42 42 42 42 42 42 43 43 42 42 42 42 42 42 42 43 43 43 44 45 47 50 51 51 52 52 53 54 54 54 54
63 63 62 62 62 63 63 62 62 62 62 63 63 63 63 62 62 61 61 61 61 61 62 61 61 60 60 61 60 60 60 59 57 56 56 56 57 57 58 57 57 55 55 53 52 52 52 53 53 53 53 52 52 51 51 49 48 47 46 46 45 45 46 46 46 47 47 47 46 46 44 44 44 44 43 43 42 42 43 42 42 42 42 42 42 42 42 42 42 42 43 44 46 48 51 51 51 52 53 53 54 54 53
63 63 63 63 63 63 63 63 63 63 63 63 63 63 64 63 62 62 61 61 62 62 62 62 62 62 62 62 62 61 60 60 59 57 56 56 56 55 55 56 57 58 57 56 56 56 56 55 55 55 54 53 53 52 51 51 50 49 48 47 47 46 46 47 47 48 48 48 47 47 46 45 44 43 43 43 42 42 42 42 42 42 42 42 42 42 41 42 43 44 43 45 46 47 49 50 50 51 52 53 53 54 53
63 63 63 63 63 63 63 63 63 63 63 63 63 64 63 63 62 62 62 62 62 62 63 62 62 62 62 63 62 61 60 60 60 59 55 55 55 54 54 55 56 56 55 55 55 56 57 56 55 55 54 53 53 53 53 52 52 51 50 49 48 48 48 49 49 49 49 48 48 47 47 45 44 43 43 43 43 43 43 43 43 43 43 43 42 42 42 44 45 46 47 47 48 48 48 49 50 50 51 52 53 53 54
64 64 63 63 64 64 64 64 64 64 64 64 64 64 63 63 62 63 63 63 62 62 63 63 63 63 63 63 63 62 61 61 61 60 58 57 57 56 55 55 55 55 55 53 53 54 55 55 55 55 55 53 52 52 52 53 53 52 52 51 50 50 50 50 50 50 49 48 47 47 46 45 44 43 43 43 43 43 43 44 44 44 44 43 43 42 43 43 45 46 47 48 47 47 48 49 49 50 51 51 51 52 53
64 64 64 63 64 64 64 64 64 64 64 64 64 64 64 63 63 63 64 63 63 63 64 64 64 64 64 64 64 63 63 62 62 62 61 60 59 58 55 55 54 54 54 52 51 52 54 55 55 55 54 54 53 52 51 52 52 53 53 52 52 51 51 50 50 49 49 48 47 46 45 45 44 44 44 43 44 44 44 44 44 44 44 43 43 43 43 44 44 45 46 46 46 47 47 48 49 50 50 51 51 51 52